When you browse on this site, cookies collect data to enhance your experience and personalize the content and advertising you see.
Visit our Privacy Policy to learn more. By continuing to use the site, you agree to this use of cookies and data.
  • In Latvia
  • List of Countries
  • For 7 days
  • Water Temperature
  • Weather Map
  • Weather Widgets
  • user-avatar
    Login

    Hourly Weather Parakou

    Today, 16 December, Monday

    Time Temperature Precipitation Wind Pressure Humidity
    00:00 +25°C° 0 mm 1 mps 727 mmHg 20%
    01:00 +25°C° 0 mm 1 mps 727 mmHg 19%
    02:00 +24°C° 0 mm 2 mps 726 mmHg 19%
    03:00 +24°C° 0 mm 2 mps 726 mmHg 19%
    04:00 +23°C° 0 mm 2 mps 726 mmHg 18%
    05:00 +23°C° 0 mm 2 mps 726 mmHg 17%
    06:00 +21°C° 0 mm 2 mps 726 mmHg 16%
    07:00 +25°C° 0 mm 2 mps 727 mmHg 15%
    08:00 +28°C° 0 mm 2 mps 727 mmHg 13%
    09:00 +30°C° 0 mm 2 mps 728 mmHg 12%
    10:00 +34°C° 0 mm 2 mps 727 mmHg 11%
    11:00 +36°C° 0 mm 3 mps 727 mmHg 10%
    12:00 +38°C° 0 mm 3 mps 726 mmHg 9%
    13:00 +39°C° 0 mm 2 mps 725 mmHg 9%
    14:00 +39°C° 0 mm 2 mps 725 mmHg 9%
    15:00 +40°C° 0 mm 2 mps 724 mmHg 10%
    16:00 +37°C° 0 mm 2 mps 724 mmHg 11%
    17:00 +35°C° 0 mm 2 mps 724 mmHg 13%
    18:00 +32°C° 0 mm 1 mps 724 mmHg 15%
    19:00 +31°C° 0 mm 2 mps 725 mmHg 15%
    20:00 +30°C° 0 mm 2 mps 725 mmHg 16%
    21:00 +28°C° 0 mm 2 mps 726 mmHg 17%
    22:00 +28°C° 0 mm 2 mps 726 mmHg 17%
    23:00 +27°C° 0 mm 2 mps 726 mmHg 18%

    Tomorrow, 17 December, Tuesday

    Time Temperature Precipitation Wind Pressure Humidity
    00:00 +26°C° 0 mm 2 mps 726 mmHg 18%
    01:00 +26°C° 0 mm 1 mps 725 mmHg 19%
    02:00 +25°C° 0 mm 1 mps 725 mmHg 19%
    03:00 +24°C° 0 mm 1 mps 725 mmHg 20%
    04:00 +24°C° 0 mm 1 mps 725 mmHg 20%
    05:00 +23°C° 0 mm 1 mps 725 mmHg 20%
    06:00 +21°C° 0 mm 0 mps 726 mmHg 21%
    07:00 +26°C° 0 mm 1 mps 726 mmHg 18%
    08:00 +28°C° 0 mm 1 mps 727 mmHg 16%
    09:00 +31°C° 0 mm 2 mps 727 mmHg 13%
    10:00 +35°C° 0 mm 2 mps 727 mmHg 12%
    11:00 +37°C° 0 mm 2 mps 727 mmHg 11%
    12:00 +39°C° 0 mm 2 mps 726 mmHg 10%
    13:00 +40°C° 0 mm 2 mps 725 mmHg 10%
    14:00 +40°C° 0 mm 1 mps 725 mmHg 10%
    15:00 +40°C° 0 mm 1 mps 724 mmHg 10%
    16:00 +37°C° 0 mm 1 mps 724 mmHg 12%
    17:00 +35°C° 0 mm 1 mps 724 mmHg 14%
    18:00 +32°C° 0 mm 1 mps 724 mmHg 16%
    19:00 +31°C° 0 mm 1 mps 725 mmHg 17%
    20:00 +30°C° 0 mm 1 mps 726 mmHg 18%
    21:00 +29°C° 0 mm 1 mps 726 mmHg 19%
    22:00 +29°C° 0 mm 1 mps 726 mmHg 19%
    23:00 +28°C° 0 mm 1 mps 726 mmHg 20%

    Day after tomorrow, 18 December, Wednesday

    Time Temperature Precipitation Wind Pressure Humidity
    00:00 +27°C° 0 mm 1 mps 726 mmHg 21%
    01:00 +26°C° 0 mm 1 mps 726 mmHg 32%
    02:00 +26°C° 0 mm 1 mps 726 mmHg 42%
    03:00 +25°C° 0 mm 1 mps 725 mmHg 52%
    04:00 +24°C° 0 mm 1 mps 726 mmHg 63%
    05:00 +22°C° 0 mm 0 mps 726 mmHg 73%
    06:00 +21°C° 0 mm 0 mps 726 mmHg 83%
    07:00 +24°C° 0 mm 0 mps 727 mmHg 74%
    08:00 +29°C° 0 mm 1 mps 727 mmHg 65%
    09:00 +32°C° 0 mm 1 mps 728 mmHg 56%
    10:00 +33°C° 0 mm 0 mps 728 mmHg 45%
    11:00 +36°C° 0 mm 0 mps 727 mmHg 33%
    12:00 +39°C° 0 mm 0 mps 727 mmHg 22%
    13:00 +39°C° 0 mm 0 mps 726 mmHg 21%
    14:00 +38°C° 0 mm 0 mps 726 mmHg 20%
    15:00 +41°C° 0 mm 1 mps 725 mmHg 19%
    16:00 +39°C° 0 mm 1 mps 725 mmHg 21%
    17:00 +36°C° 0 mm 1 mps 725 mmHg 22%
    18:00 +34°C° 0 mm 1 mps 725 mmHg 24%
    19:00 +33°C° 0 mm 1 mps 726 mmHg 23%
    20:00 +32°C° 0 mm 1 mps 726 mmHg 23%
    21:00 +31°C° 0 mm 1 mps 727 mmHg 22%
    22:00 +30°C° 0 mm 1 mps 727 mmHg 23%
    23:00 +29°C° 0 mm 1 mps 726 mmHg 24%

    19 December, Thursday

    Time Temperature Precipitation Wind Pressure Humidity
    00:00 +28°C° 0 mm 1 mps 726 mmHg 25%
    01:00 +27°C° 0 mm 1 mps 726 mmHg 26%
    02:00 +26°C° 0 mm 1 mps 726 mmHg 27%
    03:00 +26°C° 0 mm 1 mps 726 mmHg 28%
    04:00 +25°C° 0 mm 1 mps 726 mmHg 29%
    05:00 +25°C° 0 mm 1 mps 726 mmHg 30%
    06:00 +25°C° 0 mm 1 mps 727 mmHg 31%
    07:00 +27°C° 0 mm 2 mps 727 mmHg 27%
    08:00 +30°C° 0 mm 2 mps 727 mmHg 24%
    09:00 +33°C° 0 mm 3 mps 728 mmHg 20%
    10:00 +35°C° 0 mm 3 mps 727 mmHg 18%
    11:00 +37°C° 0 mm 3 mps 727 mmHg 16%
    12:00 +39°C° 0 mm 3 mps 726 mmHg 13%
    13:00 +40°C° 0 mm 3 mps 725 mmHg 13%
    14:00 +40°C° 0 mm 3 mps 725 mmHg 13%
    15:00 +40°C° 0 mm 3 mps 724 mmHg 13%
    16:00 +38°C° 0 mm 2 mps 724 mmHg 14%
    17:00 +36°C° 0 mm 2 mps 725 mmHg 16%
    18:00 +34°C° 0 mm 2 mps 725 mmHg 18%
    19:00 +32°C° 0 mm 2 mps 725 mmHg 20%
    20:00 +31°C° 0 mm 2 mps 726 mmHg 21%
    21:00 +29°C° 0 mm 2 mps 726 mmHg 22%
    22:00 +28°C° 0 mm 2 mps 726 mmHg 23%
    23:00 +28°C° 0 mm 2 mps 726 mmHg 23%

    20 December, Friday

    Time Temperature Precipitation Wind Pressure Humidity
    00:00 +27°C° 0 mm 2 mps 726 mmHg 24%
    01:00 +26°C° 0 mm 2 mps 726 mmHg 27%
    02:00 +25°C° 0 mm 1 mps 726 mmHg 31%
    03:00 +22°C° 0 mm 0 mps 726 mmHg 34%
    04:00 +24°C° 0 mm 1 mps 726 mmHg 37%
    05:00 +24°C° 0 mm 1 mps 727 mmHg 39%
    06:00 +23°C° 0 mm 1 mps 727 mmHg 42%
    07:00 +26°C° 0 mm 1 mps 728 mmHg 37%
    08:00 +29°C° 0 mm 1 mps 728 mmHg 33%
    09:00 +32°C° 0 mm 1 mps 728 mmHg 28%
    10:00 +34°C° 0 mm 1 mps 728 mmHg 24%
    11:00 +36°C° 0 mm 2 mps 727 mmHg 19%
    12:00 +38°C° 0 mm 2 mps 727 mmHg 15%
    13:00 +39°C° 0 mm 2 mps 726 mmHg 14%
    14:00 +39°C° 0 mm 2 mps 725 mmHg 13%
    15:00 +39°C° 0 mm 2 mps 724 mmHg 12%
    16:00 +37°C° 0 mm 2 mps 725 mmHg 14%
    17:00 +34°C° 0 mm 1 mps 725 mmHg 15%
    18:00 +32°C° 0 mm 1 mps 725 mmHg 17%
    19:00 +31°C° 0 mm 1 mps 725 mmHg 18%
    20:00 +30°C° 0 mm 2 mps 726 mmHg 18%
    21:00 +28°C° 0 mm 2 mps 726 mmHg 19%
    22:00 +28°C° 0 mm 2 mps 726 mmHg 20%
    23:00 +27°C° 0 mm 2 mps 726 mmHg 21%

    21 December, Saturday

    Time Temperature Precipitation Wind Pressure Humidity
    00:00 +26°C° 0 mm 2 mps 726 mmHg 22%
    01:00 +26°C° 0 mm 1 mps 726 mmHg 27%
    02:00 +25°C° 0 mm 1 mps 726 mmHg 32%
    03:00 +25°C° 0 mm 1 mps 726 mmHg 38%
    04:00 +25°C° 0 mm 1 mps 726 mmHg 41%
    05:00 +24°C° 0 mm 1 mps 727 mmHg 43%
    06:00 +24°C° 0 mm 1 mps 727 mmHg 46%
    07:00 +27°C° 0 mm 1 mps 728 mmHg 43%
    08:00 +29°C° 0 mm 1 mps 728 mmHg 41%
    09:00 +32°C° 0 mm 1 mps 729 mmHg 38%
    10:00 +34°C° 0 mm 1 mps 728 mmHg 32%
    11:00 +36°C° 0 mm 1 mps 728 mmHg 26%
    12:00 +39°C° 0 mm 1 mps 727 mmHg 21%
    13:00 +39°C° 0 mm 2 mps 727 mmHg 18%
    14:00 +39°C° 0 mm 2 mps 726 mmHg 15%
    15:00 +39°C° 0 mm 2 mps 725 mmHg 12%
    16:00 +37°C° 0 mm 2 mps 725 mmHg 13%
    17:00 +35°C° 0 mm 2 mps 725 mmHg 13%
    18:00 +32°C° 0 mm 2 mps 725 mmHg 14%
    19:00 +31°C° 0 mm 2 mps 726 mmHg 14%
    20:00 +29°C° 0 mm 2 mps 726 mmHg 14%
    21:00 +28°C° 0 mm 3 mps 727 mmHg 14%
    22:00 +28°C° 0 mm 3 mps 727 mmHg 14%
    23:00 +27°C° 0 mm 3 mps 727 mmHg 13%
    Show more